Regional Weather Roundup
Issued by NWS

Home | Current Version | Previous Version | Text Only | Print | Product List | Glossary Off
Versions: 1 2 3 4 5 6 7 8 9 10 11 12 13 14 15 16 17 18 19 20 21 22 23 24 25 26 27 28 29 30 31 32 33 34 35 36 37 38 39 40 41 42 43 44 45 46 47 48 49 50

000
ASUS45 KSLC 250810
RWRUT

UTAH REGIONAL WEATHER ROUNDUP
NATIONAL WEATHER SERVICE SALT LAKE CITY UT
200 AM MDT THU MAY 25 2017

UTZ001>011-023>025-250900-

NORTHERN UTAH

CITY           SKY/WX    TMP DP  RH WIND       PRES   REMARKS
BRIGHAM CITY   CLOUDY    59  30  32 NW20G28   29.67R
HILL AFB       CLOUDY    59  34  38 NW24G31   29.63R
LOGAN          CLOUDY    58  35  42 N16       29.69R
OGDEN          CLOUDY    59  35  40 N20G37    29.62R
SALT LAKE CITY MOCLDY    63  42  46 N21       29.62R
TOOELE VALLEY  MOCLDY    61  41  48 N14G20    29.66R
WENDOVER       CLOUDY    60  33  36 NW12G22   29.69R
HEBER CITY     PTCLDY    45  41  87 CALM      29.61S
WEST JORDAN    PTCLDY    60  44  54 NW20G25   29.65R

$$

UTZ011>015-024>027-250900-

CENTRAL/NORTHEAST UTAH

CITY           SKY/WX    TMP DP  RH WIND       PRES   REMARKS
PROVO AIRPORT  MOCLDY    63  47  55 NW20      29.58R
MOAB/CANYONLAN CLOUDY    70  35  27 W12       29.59S
DELTA          CLOUDY    70  28  21 S14G21    29.59S
PRICE          MOCLDY    57  38  48 VRB3      29.66F
ROOSEVELT      CLOUDY    59  41  51 CALM      29.63F
VERNAL         CLOUDY    61  40  45 W6        29.61S

$$

UTZ013>016-019>022-027-250900-

SOUTHERN UTAH

CITY           SKY/WX    TMP DP  RH WIND       PRES   REMARKS
BRYCE CANYON   PTCLDY    59  21  23 W12       29.87F
CEDAR CITY     MOCLDY    65  29  25 SW6       29.73F
MILFORD        CLOUDY    70  30  22 SW25G47   29.67R
ST GEORGE      MOSUNNY   78  28  16 S7        29.56S
HANKSVILLE     MOCLDY    72  25  17 CALM      29.62F
BLANDING       CLEAR     67  22  18 SW6       29.81F

$$

REGIONAL REPORTS     COLORADO/ARIZONA

CITY           SKY/WX    TMP DP  RH WIND       PRES   REMARKS
CRAIG, CO      CLOUDY    63  35  35 W15G26    29.70R
GRAND JUNCTION PTCLDY    70  33  25 N3        29.60S
RIFLE, CO      PTCLDY    69  35  28 NW17G32   29.65S
MONTROSE, CO   CLEAR     57  30  35 E8        29.71R
CORTEZ, CO     CLEAR     63  28  26 S12       29.77R
COLORADO CITY    N/A     61  25  25 SE5       29.74F
PAGE, AZ       CLEAR     80  22  11 SW10G22   29.64F
GRAND CANYON   MOCLDY    61  16  17 SW14      29.90F
KINGMAN, AZ    PTCLDY    74  18  12 W14G24    29.68F
FLAGSTAFF, AZ  PTCLDY    61  11  14 SW12      29.94F

$$

REGIONAL REPORTS    NEVADA/IDAHO/WYOMING

CITY           SKY/WX    TMP DP  RH WIND       PRES   REMARKS
LAS VEGAS, NV  PTCLDY    83  30  14 SW16      29.53S
ELY, NY        MOCLDY    55  27  34 SE5       29.74S
ELKO, NV       CLOUDY    51  40  65 NE6       29.74R
POCATELLO, ID  CLOUDY    53  27  36 SW18      29.65R
BURLEY, ID     CLOUDY    53  24  32 W20G25    29.66R
FORT BRIDGER,  PTSUNNY   49  43  79 NW7       29.72S
EVANSTON, WY   CLOUDY    49  44  83 N10       29.71R
ROCK SPRINGS,  CLOUDY    51  41  68 CALM      29.66F
KEMMERER, WY     N/A     43  36  75 NW16      29.72R

$$



USA.gov is the U.S. government's official web portal to all federal, state and local government web resources and services.